Temperature
22 23 23 23 24 24 24 23 23 23 24 23 23 23 24 23 22 22 22 22 22 21 20 20 19 18 18 18 17 17 17 16 16 16 16 16 16 15 15 15 15 15 15 15
23 23 23 23 23 23 23 23 23 23 23 23 23 23 24 23 23 23 23 22 22 21 21 20 19 18 18 18 17 17 17 16 16 16 16 16 15 15 15 15 15 15 15 15
23 23 23 22 22 22 23 23 23 23 23 23 23 23 23 24 23 22 22 22 22 21 21 20 19 19 18 18 17 17 17 17 16 16 16 16 15 15 15 15 15 15 15 15
22 23 22 22 22 23 22 23 23 22 22 23 23 23 23 24 23 23 22 22 22 21 21 20 19 18 18 18 18 17 17 17 16 16 16 16 15 15 15 15 15 15 15 15
22 22 22 22 22 22 23 22 22 22 23 23 23 23 24 24 23 23 23 22 21 21 20 20 19 19 18 18 18 17 17 16 16 16 16 15 15 15 15 15 15 15 15 15
22 22 22 22 22 22 22 22 22 22 22 22 23 23 23 24 23 24 23 22 21 21 20 19 19 18 18 18 17 17 17 16 16 16 16 15 15 15 15 15 15 15 15 15
21 22 22 22 22 22 22 22 22 22 22 22 23 22 23 24 24 23 23 22 21 20 20 19 19 18 18 18 17 17 17 16 16 16 16 16 15 15 15 15 15 15 15 15
21 21 22 22 22 22 22 22 22 22 22 22 22 22 24 24 23 22 22 22 21 20 20 19 19 18 18 17 17 17 17 16 16 16 16 16 15 15 15 15 15 15 15 15
21 21 21 21 22 22 22 22 22 22 22 22 23 23 24 24 23 22 22 21 21 20 19 19 18 18 18 18 17 17 17 16 16 16 16 16 15 15 15 15 15 15 15 15
21 20 21 21 21 21 22 22 22 22 21 21 22 22 23 23 23 23 22 21 20 20 19 19 18 18 17 17 17 17 16 16 16 16 16 16 15 15 15 15 15 15 15 15
20 20 20 21 21 21 21 21 22 22 21 21 21 22 24 23 23 23 22 21 20 20 19 18 18 18 17 17 17 17 16 16 16 16 16 16 16 15 15 15 15 15 15 15
19 20 20 20 21 21 21 21 21 21 21 21 22 22 23 23 23 22 22 21 20 19 18 18 17 17 17 17 17 16 16 16 16 16 16 15 15 15 15 15 15 15 15 15
18 19 19 19 20 20 20 20 21 21 21 21 21 22 23 22 22 21 21 20 19 18 18 17 17 17 17 17 17 16 16 16 16 16 16 15 15 15 15 15 15 15 15 15
18 19 19 19 20 20 19 19 20 20 20 21 21 22 23 23 22 21 20 20 19 18 18 17 17 17 17 16 16 16 16 16 16 16 16 16 15 16 15 15 15 15 15 15
17 18 18 18 19 19 19 19 19 20 20 20 21 21 22 23 22 21 20 20 19 18 18 17 17 17 17 16 16 16 16 16 16 16 15 16 15 15 15 15 15 15 15 15
17 17 17 18 18 18 18 19 19 20 20 20 20 21 22 22 21 21 20 20 19 18 18 17 17 17 17 16 16 16 16 16 16 16 15 15 15 15 15 15 15 15 15 15
16 16 16 17 18 18 18 20 20 20 20 21 20 22 22 21 21 20 20 19 19 18 18 17 17 17 17 16 16 16 16 16 16 16 15 15 15 15 15 15 15 15 15 15
16 16 16 16 17 17 20 20 20 20 20 21 21 21 21 21 20 19 19 19 18 18 17 17 17 16 16 16 16 16 16 16 16 16 15 15 15 15 15 15 15 15 15 15
16 16 16 16 16 18 19 19 19 19 20 21 21 21 20 20 20 20 18 18 18 17 17 17 17 16 16 16 16 16 16 16 16 16 16 15 15 15 15 15 15 15 14 14
15 16 15 15 16 17 19 19 19 20 19 20 20 20 20 19 20 21 18 17 17 17 17 17 16 16 16 16 16 16 16 16 16 16 16 15 15 15 15 15 15 15 15 14
15 14 15 15 16 17 19 18 18 18 20 20 19 19 19 19 20 19 18 17 17 17 16 16 16 16 16 16 16 16 16 16 16 16 15 15 15 15 15 15 15 15 14 14
15 15 15 15 15 17 17 17 18 19 19 18 18 18 18 18 18 18 17 17 16 16 16 16 16 16 16 16 16 16 16 16 16 16 16 15 15 15 15 15 15 15 14 14
15 16 16 16 17 17 17 17 17 17 18 18 18 17 17 17 17 17 17 16 16 16 16 16 16 15 15 15 15 16 16 15 16 16 16 15 15 15 15 15 15 14 14 14
15 14 15 16 16 16 15 15 15 15 16 16 16 16 17 17 17 17 16 16 16 16 15 15 15 15 15 15 15 15 15 15 15 15 15 15 15 15 15 15 14 14 14 14
14 14 14 15 16 15 14 14 14 14 15 15 16 16 16 16 16 16 16 16 15 15 15 15 15 15 15 15 15 15 15 15 15 15 15 15 15 15 15 15 14 14 14 14
13 13 14 14 15 15 15 14 14 14 14 15 15 15 15 15 15 15 15 15 15 15 15 15 15 15 15 15 15 15 15 15 15 15 15 15 15 15 14 14 14 14 14 14
Wind_Speed
6 7 8 8 7 5 4 5 4 3 2 4 5 6 5 4 6 6 6 7 8 8 7 7 8 8 8 8 7 7 7 7 6 5 4 3 3 2 3 2 3 3 3 3
7 8 7 6 6 7 7 7 5 3 2 4 5 6 5 5 6 7 7 7 8 8 7 7 8 9 10 9 9 9 8 8 7 4 4 3 3 2 2 2 3 3 3 3
9 5 5 8 9 9 9 8 7 5 3 5 5 5 5 4 5 5 6 7 7 8 8 8 9 10 10 10 10 8 9 9 8 6 4 4 3 3 3 3 2 2 2 3
7 6 7 8 8 9 8 6 7 7 7 4 5 5 4 4 4 4 5 6 7 7 7 8 9 10 11 11 9 9 9 9 8 7 5 5 4 3 3 3 3 3 3 3
6 6 8 9 8 8 5 4 6 7 8 7 6 6 3 3 3 4 4 4 5 6 7 8 9 10 10 10 9 9 9 9 8 7 6 5 4 3 3 3 4 4 4 3
6 5 6 6 5 6 5 5 5 6 7 8 6 7 4 3 3 3 3 3 3 5 6 7 8 8 9 9 10 10 10 9 9 8 7 6 5 5 5 4 4 3 3 3
8 7 6 5 6 7 7 7 5 6 6 5 4 6 4 1 2 3 3 2 2 4 5 6 8 9 9 10 11 11 11 10 9 9 8 7 6 6 5 5 4 4 4 3
8 8 7 6 7 6 9 10 6 5 5 4 4 6 2 1 1 2 2 1 1 3 4 6 8 9 10 11 11 12 12 11 10 9 8 7 6 5 4 4 4 4 3 3
5 5 4 5 5 7 8 9 7 6 5 6 5 4 3 3 2 1 1 1 1 2 4 5 7 8 9 10 11 12 12 11 10 9 8 7 6 6 6 5 5 3 3 3
4 5 5 4 5 5 6 7 6 7 6 6 6 7 4 3 3 1 0 0 1 2 3 5 6 7 8 9 10 11 11 11 10 9 8 6 6 6 6 5 5 5 4 4
5 5 5 6 8 8 8 9 7 7 6 6 5 3 2 3 3 2 1 1 1 2 3 4 5 6 7 8 9 10 10 10 9 8 8 7 6 7 6 5 5 5 5 5
3 5 7 8 5 6 9 9 10 8 7 7 7 4 3 1 2 2 1 0 1 2 3 4 5 6 7 8 9 10 10 10 9 8 8 8 7 7 7 6 5 6 5 5
3 5 6 7 8 7 8 9 9 8 7 8 9 5 3 1 1 1 1 1 1 2 3 4 5 6 7 7 8 9 9 9 8 8 8 8 8 8 7 7 6 6 6 6
4 7 9 8 5 6 8 9 10 11 10 11 11 9 5 3 2 2 2 2 2 3 4 5 5 6 7 7 8 8 8 9 9 9 9 9 8 8 7 7 7 6 7 6
3 8 9 10 9 9 11 12 13 15 13 11 10 11 9 6 4 3 3 3 3 3 4 5 5 6 7 7 8 8 8 9 9 9 9 8 7 7 7 7 7 7 7 7
4 6 8 11 10 11 14 15 16 16 15 14 13 13 9 6 5 4 4 4 4 4 4 4 5 6 7 8 8 8 8 9 10 9 9 8 8 8 7 7 7 7 7 7
5 6 7 9 8 10 14 15 15 14 14 14 14 12 7 7 7 6 5 5 5 4 4 4 5 6 7 8 9 9 9 9 10 10 9 8 8 8 8 7 8 7 8 7
9 9 6 7 7 11 7 5 10 13 14 13 13 10 9 9 7 6 5 5 4 3 4 5 5 5 6 7 7 8 8 10 10 10 9 9 8 8 8 8 8 8 7 7
12 11 7 6 9 10 8 6 9 12 12 12 12 10 8 6 6 6 4 4 4 4 4 5 6 6 6 7 7 8 9 9 10 9 9 9 9 9 9 8 8 7 7 7
10 12 9 8 8 9 6 3 4 8 11 9 10 10 8 6 7 4 3 3 3 3 3 4 5 6 6 6 7 8 9 9 9 9 9 9 9 9 9 9 8 7 7 6
8 9 13 12 11 9 4 2 4 9 5 4 7 7 8 8 6 3 2 3 3 3 3 3 5 6 6 7 8 9 9 9 8 8 8 8 9 9 9 8 7 7 7 7
9 8 10 10 11 9 3 5 7 5 2 3 5 6 7 6 4 4 3 3 3 3 3 4 5 5 6 7 8 9 9 8 8 8 8 8 8 8 8 8 8 8 8 7
9 8 7 9 8 4 4 7 6 6 6 5 5 6 7 6 6 5 4 4 4 4 4 4 5 6 6 7 8 8 8 7 8 8 9 8 8 8 8 9 9 8 8 7
7 6 8 9 10 9 9 9 9 8 8 7 7 7 7 7 7 6 5 4 4 4 4 4 5 6 6 7 7 7 7 7 8 9 8 8 8 8 8 7 7 7 7 8
8 6 8 11 11 9 10 10 9 9 8 7 7 7 8 8 8 7 5 5 5 5 5 5 5 6 6 7 7 6 7 8 9 8 8 8 8 8 8 7 6 7 7 7
10 10 10 9 8 8 9 9 9 9 8 8 7 7 7 8 8 7 6 6 6 6 5 6 6 6 6 7 7 7 7 8 9 8 7 7 7 7 7 7 5 2 2 4
Wind_Direction
187 199 204 205 211 226 217 222 231 236 237 251 257 267 265 238 228 232 229 222 216 217 209 200 198 196 192 189 190 187 183 178 173 173 176 165 153 145 134 125 121 138 147 141
189 208 215 209 201 211 218 230 241 233 234 261 271 271 261 241 234 237 236 229 223 219 208 198 198 196 194 188 193 192 187 182 179 181 173 163 154 155 139 143 140 155 155 156
209 196 196 202 205 213 224 236 242 248 255 239 269 258 236 228 231 237 242 240 232 225 220 205 197 196 193 190 193 192 186 181 178 174 166 159 151 160 161 161 154 157 162 165
216 213 199 202 210 221 226 233 240 240 247 246 251 269 236 227 229 237 242 241 237 229 223 211 201 194 195 191 189 188 181 179 174 173 176 176 171 167 165 168 162 161 164 159
206 203 209 213 216 224 230 224 232 238 246 253 241 260 245 206 233 247 240 238 238 227 218 210 203 197 192 185 183 184 179 176 173 175 175 182 172 168 163 170 167 166 158 155
228 220 224 227 219 216 203 202 208 225 238 242 241 250 256 220 256 269 254 248 233 215 206 204 195 189 185 180 180 179 178 178 175 177 180 184 176 175 170 170 163 165 160 154
213 214 216 219 207 195 209 218 220 215 218 234 219 241 250 231 252 273 287 282 240 205 193 189 182 182 180 180 181 180 179 181 181 182 184 185 188 185 182 171 164 168 165 155
216 209 202 213 224 215 213 221 231 239 236 231 213 236 231 204 249 275 296 307 202 181 183 184 184 182 180 179 181 183 183 184 183 185 184 186 186 188 181 175 168 171 164 158
230 213 187 212 225 223 210 217 240 255 258 247 224 230 227 211 228 257 340 29 151 176 181 185 183 183 182 180 182 185 183 184 183 185 186 189 187 185 182 185 182 177 174 161
254 237 206 195 202 209 227 208 215 228 238 240 236 235 234 204 226 233 294 193 184 181 181 182 181 182 182 181 180 183 184 185 185 186 186 188 189 183 182 185 186 185 176 170
253 233 216 207 213 208 199 208 218 221 235 244 245 226 211 241 244 241 236 213 192 184 186 182 178 175 174 174 176 179 181 180 181 186 184 186 187 181 176 175 178 182 174 174
244 246 234 226 230 242 225 219 219 226 223 236 251 243 116 238 247 233 255 239 161 162 167 169 167 165 167 173 178 180 180 179 182 184 185 190 182 182 179 176 180 185 179 176
236 239 231 216 209 208 217 213 220 233 236 233 237 231 146 206 212 241 256 240 168 153 157 159 161 166 170 175 179 180 183 179 181 184 186 188 183 186 185 181 181 185 177 178
254 238 237 240 243 228 230 227 225 230 234 237 238 249 245 250 265 273 252 224 187 162 162 167 169 171 173 175 179 179 181 177 180 183 186 186 185 188 190 183 181 182 180 181
248 245 248 259 265 255 252 240 230 234 239 244 245 251 259 265 264 253 233 212 198 183 175 177 178 177 178 177 179 178 177 178 180 183 185 185 185 183 183 179 178 181 180 181
241 245 250 251 250 248 253 248 237 237 240 242 250 252 259 262 251 241 231 219 214 201 192 190 188 185 185 183 183 179 176 179 181 184 184 179 182 177 178 179 179 180 178 178
222 232 242 247 249 254 246 238 232 229 230 232 240 246 248 247 238 237 234 233 228 214 208 206 202 196 190 189 188 185 179 178 182 184 181 178 180 177 178 175 177 177 177 174
229 231 236 249 240 239 242 223 231 234 235 234 242 246 241 243 241 237 230 228 224 224 224 218 211 203 195 188 188 184 179 179 182 183 180 178 178 175 175 175 176 178 178 175
227 226 229 235 238 252 251 235 224 228 237 230 232 235 236 237 232 220 219 236 236 230 229 219 210 199 193 185 181 182 181 181 182 183 181 179 178 176 176 178 179 178 177 177
214 219 225 229 235 241 238 199 223 234 238 221 224 227 221 214 231 228 202 228 245 241 233 217 200 194 186 181 179 182 183 182 185 186 184 180 178 176 178 179 178 175 175 176
198 207 218 229 237 247 253 221 209 223 236 194 214 218 212 219 245 255 230 235 237 228 221 205 195 192 189 184 183 185 185 187 184 180 178 176 180 181 178 173 171 170 170 172
215 212 215 222 232 238 185 189 216 252 295 239 229 223 224 233 252 252 246 240 231 221 210 203 197 195 190 189 191 190 190 184 175 173 175 176 177 176 174 170 172 173 167 170
231 230 229 226 238 268 228 236 262 287 274 262 249 237 230 237 248 257 256 242 228 222 213 208 200 195 192 193 196 196 188 178 172 171 174 176 174 173 173 175 174 174 176 181
240 254 243 244 251 261 265 265 269 275 276 275 263 255 241 245 250 250 253 242 230 224 219 213 202 198 196 195 197 199 184 178 176 175 176 176 176 175 176 177 179 181 185 190
246 244 249 253 259 266 265 268 271 277 278 272 265 258 252 249 248 243 245 239 230 224 220 216 210 207 204 197 194 191 182 180 181 179 177 177 179 177 178 179 183 190 194 196
240 240 243 250 261 264 271 277 280 279 274 268 261 259 254 249 248 244 241 238 228 223 220 217 215 212 207 199 194 189 186 183 182 182 180 180 180 179 179 175 170 122 171 162
Height
1520 1519 1518 1518 1518 1519 1520 1522 1524 1523 1522 1523 1522 1522 1521 1523 1525 1525 1526 1527 1528 1530 1532 1534 1535 1537 1539 1541 1542 1544 1545 1546 1547 1548 1549 1550 1551 1552 1552 1553 1553 1554 1555 1556
1518 1518 1517 1518 1520 1521 1521 1523 1523 1522 1522 1523 1521 1521 1519 1520 1522 1523 1523 1524 1526 1528 1530 1531 1533 1535 1537 1539 1541 1543 1544 1545 1546 1548 1549 1550 1551 1552 1552 1552 1553 1554 1555 1556
1514 1515 1517 1519 1520 1521 1521 1522 1522 1523 1522 1521 1522 1520 1517 1517 1519 1520 1521 1522 1523 1525 1526 1528 1530 1532 1534 1536 1539 1541 1543 1544 1545 1547 1548 1549 1550 1551 1552 1553 1553 1554 1555 1555
1514 1515 1517 1518 1518 1518 1521 1519 1521 1523 1524 1522 1522 1524 1515 1513 1515 1516 1518 1519 1520 1521 1523 1525 1527 1529 1531 1534 1536 1539 1541 1543 1544 1546 1547 1549 1549 1551 1551 1552 1553 1553 1554 1555
1513 1514 1515 1516 1516 1517 1518 1519 1520 1521 1521 1522 1519 1522 1513 1510 1513 1512 1514 1515 1517 1518 1520 1522 1524 1526 1528 1531 1534 1536 1539 1541 1542 1544 1546 1547 1549 1550 1551 1552 1552 1553 1554 1555
1512 1514 1514 1514 1516 1517 1519 1520 1520 1520 1520 1526 1519 1521 1516 1508 1510 1509 1511 1513 1514 1516 1517 1519 1521 1523 1526 1528 1531 1533 1536 1539 1541 1543 1545 1546 1548 1549 1550 1551 1552 1553 1554 1554
1513 1512 1513 1514 1515 1517 1517 1521 1526 1526 1526 1522 1515 1518 1512 1505 1507 1508 1509 1510 1512 1513 1515 1517 1519 1520 1523 1525 1528 1531 1534 1536 1539 1541 1543 1545 1547 1548 1550 1551 1552 1553 1554 1554
1513 1513 1511 1512 1512 1513 1514 1515 1523 1527 1524 1518 1517 1515 1506 1504 1507 1508 1509 1510 1510 1511 1513 1515 1516 1518 1520 1523 1526 1529 1532 1534 1537 1540 1542 1544 1546 1547 1549 1550 1551 1553 1554 1554
1511 1511 1509 1511 1511 1511 1512 1512 1512 1516 1516 1520 1513 1507 1503 1503 1505 1506 1507 1508 1509 1510 1511 1513 1515 1517 1519 1521 1524 1527 1530 1533 1535 1538 1541 1543 1545 1546 1548 1549 1551 1552 1553 1554
1510 1513 1509 1510 1511 1511 1510 1510 1513 1517 1524 1524 1516 1511 1506 1502 1502 1503 1505 1506 1508 1509 1510 1512 1513 1515 1517 1520 1522 1525 1528 1531 1534 1537 1539 1542 1543 1545 1546 1548 1550 1551 1552 1553
1511 1513 1512 1509 1508 1509 1511 1512 1510 1511 1513 1519 1519 1511 1497 1499 1501 1502 1504 1505 1507 1508 1509 1510 1512 1513 1516 1518 1521 1524 1527 1530 1532 1535 1538 1540 1542 1544 1545 1547 1548 1550 1551 1553
1513 1511 1511 1508 1507 1507 1506 1506 1508 1514 1514 1512 1513 1509 1497 1499 1500 1502 1504 1505 1506 1507 1508 1509 1510 1512 1514 1517 1520 1522 1525 1528 1531 1534 1536 1539 1541 1542 1544 1546 1547 1549 1550 1552
1514 1513 1515 1512 1511 1509 1506 1507 1507 1508 1509 1510 1513 1507 1497 1499 1500 1502 1504 1505 1506 1506 1507 1508 1509 1511 1513 1516 1518 1521 1523 1526 1529 1532 1534 1537 1539 1541 1543 1545 1546 1548 1549 1551
1515 1511 1512 1512 1505 1505 1507 1508 1508 1509 1509 1507 1505 1501 1496 1496 1499 1501 1503 1504 1505 1506 1506 1507 1508 1510 1512 1514 1517 1519 1521 1524 1527 1529 1532 1534 1537 1539 1541 1543 1545 1546 1548 1549
1514 1511 1508 1507 1506 1505 1505 1504 1505 1506 1503 1505 1500 1499 1494 1495 1498 1500 1501 1503 1504 1505 1505 1506 1507 1509 1511 1513 1515 1517 1519 1522 1524 1527 1530 1532 1535 1537 1539 1541 1543 1545 1547 1548
1513 1512 1509 1507 1505 1504 1503 1499 1499 1500 1499 1499 1499 1497 1493 1495 1497 1498 1500 1501 1502 1503 1504 1505 1506 1507 1509 1511 1513 1515 1517 1519 1522 1525 1528 1530 1533 1535 1537 1539 1541 1543 1545 1547
1511 1511 1511 1505 1503 1502 1500 1492 1492 1493 1492 1493 1494 1491 1492 1494 1495 1496 1498 1499 1500 1501 1502 1503 1504 1505 1507 1509 1511 1513 1515 1517 1520 1523 1526 1528 1530 1533 1535 1537 1539 1541 1543 1545
1509 1509 1509 1506 1505 1507 1487 1485 1486 1488 1488 1488 1488 1488 1490 1492 1493 1495 1496 1497 1498 1498 1499 1500 1502 1503 1505 1507 1509 1511 1513 1515 1518 1521 1523 1526 1528 1530 1533 1535 1537 1539 1541 1543
1505 1506 1507 1505 1503 1493 1485 1484 1484 1486 1484 1484 1485 1486 1488 1490 1491 1492 1493 1494 1495 1496 1497 1498 1499 1501 1503 1504 1506 1509 1511 1513 1516 1518 1521 1523 1526 1528 1530 1533 1535 1537 1539 1541
1501 1502 1504 1503 1502 1495 1482 1480 1483 1484 1483 1480 1482 1483 1486 1488 1487 1487 1490 1492 1493 1493 1494 1495 1496 1498 1500 1502 1504 1506 1508 1511 1513 1515 1518 1521 1523 1526 1528 1531 1533 1535 1537 1539
1499 1500 1500 1499 1496 1484 1479 1482 1484 1487 1479 1478 1480 1482 1484 1485 1485 1487 1488 1489 1490 1491 1492 1493 1494 1495 1497 1499 1501 1504 1506 1508 1511 1513 1516 1518 1521 1524 1526 1529 1531 1533 1535 1537
1490 1492 1492 1492 1492 1485 1479 1481 1481 1477 1476 1477 1478 1480 1482 1484 1485 1485 1486 1487 1487 1488 1489 1490 1491 1493 1495 1496 1499 1501 1503 1506 1508 1510 1513 1516 1518 1521 1524 1526 1528 1531 1533 1535
1486 1485 1482 1482 1480 1476 1477 1477 1477 1477 1476 1476 1477 1478 1480 1481 1482 1483 1484 1484 1485 1485 1486 1487 1489 1490 1492 1494 1496 1498 1501 1503 1505 1508 1510 1513 1516 1518 1521 1523 1526 1528 1530 1532
1484 1484 1481 1478 1475 1476 1476 1476 1475 1476 1475 1475 1475 1476 1477 1478 1479 1480 1481 1481 1482 1483 1484 1485 1486 1488 1489 1491 1493 1495 1498 1500 1502 1505 1508 1510 1513 1515 1518 1520 1523 1525 1527 1529
1481 1482 1479 1475 1474 1474 1473 1473 1473 1472 1472 1472 1472 1473 1474 1475 1476 1477 1478 1478 1479 1480 1481 1482 1484 1485 1486 1488 1490 1492 1494 1497 1500 1502 1505 1507 1510 1512 1514 1517 1519 1522 1524 1526
1477 1477 1475 1471 1471 1471 1470 1470 1469 1468 1468 1468 1469 1469 1470 1471 1472 1473 1474 1475 1476 1477 1478 1479 1481 1482 1484 1485 1487 1489 1491 1494 1496 1499 1501 1504 1506 1509 1511 1513 1516 1518 1521 1523